Terminal Aerodrome Forecast
Issued by NWS Buffalo, NY

Home | Current Version | Previous Version | Text Only | Print | Product List | Glossary On
Versions: 1 2 3 4 5 6 7 8 9 10 11 12 13 14 15 16 17 18 19 20 21 22 23 24 25 26 27 28 29
414
FTUS41 KBUF 232102 AAB
TAFBUF
TAF AMD
KBUF 232102Z 2321/2418 06016KT P6SM BKN016 BKN080
     FM240400 06012G18KT 3SM -SNPLRA OVC015
     FM240700 06011G18KT 1SM -SN OVC015
     FM241000 05009KT 1SM -SN OVC007
     FM241400 04008KT P6SM VCSH OVC003=

USA.gov is the U.S. government's official web portal to all federal, state and local government web resources and services.